Location: Unspecified
(44.0496°N, 0.0000°E)
Time: 14:40:51
(UTC+00:00)

Injun/Solrad 3 - Visible Passes

Search period start: 04 April 2026 00:00
Search period end: 14 April 2026 00:00
Orbit: 870 x 986 km, 66.8° (Epoch: 29 March)

Date Brightness Start Highest point End Pass type
(mag) Time Alt. Az. Time Alt. Az. Time Alt. Az.
4 Apr 8.9 01:42:00 41° N 01:42:00 41° N 01:46:11 10° NNE visible
4 Apr 9.8 03:25:37 13° WNW 03:28:01 16° NNW 03:31:39 10° N visible
5 Apr 10.1 00:08:56 17° NE 00:08:56 17° NE 00:10:25 10° NE visible
5 Apr 8.9 01:52:33 37° NNW 01:52:33 37° NNW 01:57:06 10° NNE visible
5 Apr 10.1 03:37:08 10° NW 03:39:38 12° NNW 03:42:11 10° N visible
6 Apr 9.7 00:19:27 23° NE 00:19:27 23° NE 00:21:43 10° NE visible
6 Apr 9.2 02:03:03 30° NW 02:03:03 30° NW 02:07:57 10° NNE visible
6 Apr 10.3 03:50:44 10° NNW 03:51:21 10° NNW 03:51:58 10° NNW visible
7 Apr 9.4 00:29:56 30° NNE 00:29:56 30° NNE 00:32:51 10° NNE visible
7 Apr 9.5 02:13:32 22° NW 02:14:00 22° NW 02:18:45 10° NNE visible
8 Apr 9.2 00:40:23 35° NNE 00:40:23 35° NNE 00:43:52 10° NNE visible
8 Apr 9.8 02:23:58 16° NW 02:25:30 17° NNW 02:29:28 10° N visible
8 Apr 10.2 23:07:11 14° NE 23:07:11 14° NE 23:07:58 10° NE visible
9 Apr 9.1 00:50:46 36° N 00:50:46 36° N 00:54:50 10° NNE visible
9 Apr 10.1 02:34:22 10° NW 02:37:07 14° NNW 02:40:04 10° N visible
9 Apr 9.8 23:17:32 20° NE 23:17:32 20° NE 23:19:20 10° NE visible
10 Apr 9.3 01:01:08 32° NNW 01:01:08 32° NNW 01:05:43 10° NNE visible
10 Apr 10.3 02:47:14 10° NW 02:48:47 11° NNW 02:50:21 10° N visible
10 Apr 9.5 23:27:51 27° NE 23:27:51 27° NE 23:30:31 10° NE visible
11 Apr 9.5 01:11:27 25° NW 01:11:33 25° NW 01:16:32 10° NNE visible
11 Apr 9.2 23:38:07 35° NNE 23:38:07 35° NNE 23:41:35 10° NNE visible
12 Apr 9.8 01:21:43 18° NW 01:23:01 19° NW 01:27:17 10° N visible
12 Apr 10.0 22:04:44 13° NE 22:04:44 13° NE 22:05:30 10° NE visible
12 Apr 9.0 23:48:20 40° N 23:48:20 40° N 23:52:33 10° NNE visible
13 Apr 10.2 01:31:54 11° WNW 01:34:35 15° NNW 01:37:56 10° N visible
13 Apr 9.6 22:14:51 21° NE 22:14:51 21° NE 22:16:56 10° NE visible
